This demonstration page uses our WeatherBlox Daily Observations layout. Learn more.

Left ArrowRight Arrow

39.08367, -84.50855

Hourly Observations for August 24, 2019

Temp ( °F °C ) Dew Point ( °F °C ) Humidity (%) Winds ( mph kmh ) Pressure ( in mb ) Visibility ( mi km ) Precip ( " mm )
12:53 am 00:53 Clear 58 14.4 57 13.9 97 97 NE 3 6 30.17 1022 10 16 N/A
1:53 am 01:53 Clear 58 14.4 57 13.9 97 97 N N/A 30.18 1022 10 16 N/A
2:53 am 02:53 Clear 57 13.9 56 13.3 96 96 N N/A 30.18 1022 10 16 N/A
3:53 am 03:53 Clear 56 13.3 55 12.8 97 97 N N/A 30.19 1022 10 16 N/A
4:53 am 04:53 Clear 56 13.3 55 12.8 97 97 NE 3 6 30.19 1022 10 16 N/A
5:53 am 05:53 Clear 54 12.2 53 11.7 97 97 NE 5 7 30.19 1023 10 16 N/A
6:53 am 06:53 Clear 56 13.3 53 11.7 90 90 NNE 7 11 30.20 1023 10 16 N/A
7:53 am 07:53 Sunny 58 14.4 54 12.2 87 87 NE 7 11 30.22 1023 10 16 N/A
8:53 am 08:53 Sunny 62 16.7 56 13.3 80 80 NE 7 11 30.22 1023 10 16 N/A
9:53 am 09:53 Sunny 68 20 56 13.3 65 65 ENE 8 13 30.22 1023 10 16 N/A
10:53 am 10:53 Sunny 71 21.7 54 12.2 55 55 ENE 12 19 30.22 1023 10 16 N/A
11:53 am 11:53 Sunny 74 23.3 53 11.7 48 48 NE 10 17 30.22 1023 10 16 N/A
12:53 pm 12:53 Sunny 76 24.4 52 11.1 43 43 ENE 13 20 30.19 1022 10 16 N/A
1:53 pm 13:53 Sunny 77 25 53 11.7 43 43 NE 10 17 30.18 1022 10 16 N/A
2:53 pm 14:53 Mostly Sunny 78 25.6 53 11.7 42 42 ENE 10 17 30.17 1022 10 16 N/A
3:53 pm 15:53 Mostly Sunny 78 25.6 53 11.7 42 42 ENE 14 22 30.14 1021 10 16 N/A
4:53 pm 16:53 Mostly Sunny 78 25.6 53 11.7 42 42 ENE 9 15 30.14 1021 10 16 N/A
5:53 pm 17:53 Sunny 78 25.6 53 11.7 42 42 ENE 14 22 30.13 1020 10 16 N/A
6:53 pm 18:53 Sunny 76 24.4 53 11.7 45 45 ENE 13 20 30.12 1020 10 16 N/A
7:53 pm 19:53 Sunny 72 22.2 54 12.2 53 53 ENE 8 13 30.12 1020 10 16 N/A
8:53 pm 20:53 Clear 65 18.3 57 13.9 76 76 N N/A 30.14 1021 10 16 N/A
9:53 pm 21:53 Clear 62 16.7 58 14.4 86 86 ENE 3 6 30.16 1021 10 16 N/A
10:53 pm 22:53 Clear 61 16.1 58 14.4 90 90 ENE 3 6 30.16 1022 10 16 N/A
11:53 pm 23:53 Clear 60 15.6 56 13.3 86 86 NNE 5 7 30.16 1021 10 16 N/A

Powered by AerisWeather